Temp
56 59 60 61 62 61 60 60 59 60 60 60 62 62 63 64 65 62 62 63 62 62 61 61 60 58 57 57 56 56 55 52 47 47 48 48 47 47 48 49 50 51 55
58 59 59 60 61 60 60 59 60 60 63 64 64 62 63 63 62 62 61 63 60 59 60 58 59 59 56 56 56 54 54 54 50 45 46 45 44 45 45 45 47 50 51
58 59 59 59 60 59 59 60 61 61 62 62 63 63 62 62 62 61 61 59 61 60 60 58 58 57 55 55 54 52 51 51 49 47 44 45 46 46 45 46 46 47 50
57 57 57 58 59 59 59 60 60 60 59 59 61 62 61 61 62 61 60 59 58 57 57 57 57 55 54 53 51 50 49 47 47 45 44 44 45 47 45 42 41 44 44
57 56 57 57 58 59 59 58 59 58 58 60 60 61 61 60 61 59 58 56 55 55 55 56 56 56 57 54 51 49 48 47 46 45 45 46 45 40 40 41 39 40 40
56 55 57 58 58 58 58 58 58 58 58 59 60 59 58 59 58 57 56 54 53 52 50 52 54 56 56 57 56 56 52 48 47 46 44 39 37 37 39 38 37 36 34
54 56 56 57 56 57 57 57 56 56 57 57 58 58 57 56 57 56 55 53 51 51 51 51 52 53 53 53 54 54 54 54 50 42 38 35 35 37 37 36 35 34 32
53 54 56 55 55 55 56 56 56 56 56 56 56 56 55 56 57 56 55 52 50 51 51 51 51 52 51 47 45 43 43 43 43 45 40 38 39 39 38 39 37 36 35
52 54 55 56 55 55 55 55 55 55 55 56 56 55 54 53 56 55 53 51 51 50 53 53 50 49 52 49 43 40 41 43 51 51 50 50 49 49 45 39 35 33 31
52 54 56 56 55 54 54 53 53 53 53 53 53 54 54 52 54 54 53 53 50 49 50 50 53 50 52 50 41 39 37 36 38 39 39 41 42 44 45 37 35 32 29
52 52 55 56 55 53 52 52 51 50 50 50 49 50 51 52 52 56 56 52 49 46 46 45 49 54 52 51 47 41 41 40 43 37 36 35 36 37 37 36 36 34 30
50 51 54 54 53 52 50 50 50 49 47 47 47 48 50 51 54 55 55 53 51 46 44 45 48 51 51 51 48 51 50 45 38 36 34 33 32 33 34 35 35 35 35
47 50 52 52 51 51 49 48 48 48 47 47 47 47 49 53 55 56 55 53 50 45 45 48 49 50 51 50 51 50 46 38 35 33 32 32 32 34 35 35 36 35 35
46 49 51 50 49 50 50 50 49 48 47 48 47 47 49 50 50 50 50 49 50 48 48 45 45 47 47 45 42 41 40 36 35 33 32 32 33 33 32 33 32 32 31
47 51 50 50 49 49 49 50 49 51 51 49 49 49 48 46 47 48 47 44 44 45 42 40 37 38 36 35 35 36 35 35 33 33 32 32 33 33 33 33 32 32 30
49 49 49 48 48 48 48 48 50 51 51 51 52 51 52 51 51 50 50 48 48 48 41 38 35 34 34 33 33 33 33 36 33 33 32 32 32 32 33 34 33 30 29
50 49 49 48 48 48 48 47 45 47 51 52 52 53 52 51 50 49 49 49 50 47 39 35 35 34 33 33 33 32 32 33 33 32 32 32 33 34 32 32 31 31 30
50 50 49 48 48 48 47 47 47 46 44 45 50 49 49 49 49 48 49 48 42 42 37 36 34 34 34 34 33 32 32 33 32 32 32 32 31 31 31 30 30 29 29
50 49 48 48 47 47 47 47 47 46 45 44 45 47 48 48 48 49 48 40 38 37 36 35 35 36 34 33 33 33 33 32 32 32 31 31 31 30 30 30 30 36 33
50 49 48 47 47 47 47 46 46 45 44 43 43 42 44 44 41 39 40 40 38 37 36 36 35 36 35 34 33 32 32 33 32 32 31 31 31 31 30 30 30 28 29
49 49 48 48 48 48 47 46 45 44 44 43 43 45 45 41 39 38 39 37 38 38 36 36 35 35 34 34 33 32 32 32 32 32 32 32 32 31 32 31 30 30 30
49 48 49 48 48 48 48 47 46 44 44 43 43 44 47 41 40 39 39 39 38 37 37 37 36 35 34 34 34 33 32 32 32 32 32 32 32 32 32 31 31 29 29
49 48 48 48 48 48 48 48 46 45 44 43 43 44 44 41 40 39 40 39 39 38 37 37 37 35 35 36 36 35 33 33 33 33 32 32 32 32 32 31 30 30 29
48 48 48 47 47 47 47 46 46 45 44 44 44 44 43 42 40 40 39 39 39 38 37 37 36 35 36 36 37 36 36 35 36 35 35 33 32 32 32 31 31 31 30
47 47 47 47 47 47 47 46 46 45 45 45 45 45 43 42 40 40 39 38 38 38 37 36 35 37 37 37 37 37 39 39 36 38 35 34 34 33 32 31 31 30 31
47 47 48 47 47 47 46 45 45 45 45 45 45 44 43 42 40 40 39 38 37 36 36 35 36 37 38 37 37 38 39 39 38 40 35 34 32 31 31 31 32 31 31
MSLP
1007.92 1007.32 1006.35 1005.69 1005.79 1005.54 1005.71 1005.56 1006.93 1006.67 1007.03 1008.32 1009.07 1008.81 1008.88 1009.12 1010.13 1010.47 1011.46 1012.19 1012.82 1013.50 1013.99 1014.43 1015.01 1015.47 1015.95 1016.39 1016.45 1016.63 1017.19 1017.64 1019.22 1020.62 1020.97 1021.20 1021.27 1021.16 1020.95 1020.78 1020.73 1020.58 1020.46
1008.07 1007.45 1006.97 1005.99 1006.33 1006.06 1005.55 1005.43 1006.48 1006.04 1006.15 1007.28 1008.21 1008.93 1009.10 1009.80 1010.39 1011.06 1011.83 1012.56 1013.23 1013.96 1014.41 1014.78 1015.48 1015.91 1016.44 1016.75 1016.78 1017.30 1017.78 1017.95 1018.96 1020.38 1021.30 1021.69 1021.86 1021.87 1021.83 1021.70 1021.69 1021.61 1021.54
1008.16 1007.49 1006.75 1006.29 1006.48 1006.34 1006.04 1006.07 1006.59 1006.76 1006.96 1007.56 1007.93 1008.32 1009.72 1010.16 1010.89 1011.61 1012.21 1012.99 1013.48 1014.35 1014.75 1015.20 1015.85 1016.33 1016.93 1017.06 1017.36 1017.93 1018.37 1018.81 1019.34 1020.33 1021.39 1021.99 1022.27 1022.23 1022.30 1022.23 1022.26 1022.27 1022.12
1008.09 1007.57 1007.10 1006.31 1006.33 1006.09 1006.48 1006.52 1006.79 1006.99 1007.55 1007.84 1008.53 1009.05 1010.03 1010.59 1011.38 1012.20 1012.72 1013.42 1014.20 1015.03 1015.45 1015.89 1016.34 1016.90 1017.29 1017.49 1017.96 1018.54 1019.10 1019.56 1020.19 1020.91 1021.74 1022.29 1022.40 1022.49 1022.49 1022.72 1022.95 1022.97 1023.03
1008.08 1008.02 1007.50 1006.73 1006.18 1006.63 1006.99 1007.36 1007.57 1007.78 1008.23 1008.50 1008.84 1009.65 1010.34 1011.05 1011.93 1012.55 1013.21 1014.14 1015.06 1015.69 1016.16 1016.58 1017.12 1017.49 1017.75 1018.05 1018.50 1019.27 1019.64 1020.20 1020.85 1021.43 1022.03 1022.50 1022.84 1022.91 1023.11 1023.00 1023.45 1023.61 1023.81
1008.46 1008.09 1007.62 1007.23 1007.08 1007.16 1007.43 1007.84 1008.02 1008.48 1008.70 1008.86 1009.54 1010.20 1010.94 1011.89 1012.52 1013.02 1013.80 1014.90 1015.83 1016.44 1017.00 1017.63 1018.10 1018.31 1018.41 1018.78 1019.22 1019.70 1020.05 1020.48 1021.20 1022.01 1022.80 1023.42 1023.82 1023.72 1023.66 1023.86 1024.04 1024.33 1024.70
1009.01 1008.27 1007.72 1007.45 1007.50 1007.71 1008.00 1008.21 1008.45 1008.93 1009.13 1009.64 1010.15 1010.71 1011.62 1012.44 1013.14 1013.72 1014.74 1015.71 1016.46 1017.14 1017.77 1018.50 1019.15 1019.33 1019.35 1019.72 1020.25 1020.68 1020.99 1021.42 1022.05 1022.78 1023.69 1024.27 1024.38 1024.39 1024.22 1024.45 1024.69 1025.05 1025.87
1009.26 1008.42 1007.94 1007.93 1008.02 1008.14 1008.17 1008.60 1009.03 1009.41 1009.80 1010.37 1010.83 1011.50 1012.20 1013.31 1013.84 1014.41 1015.52 1016.37 1017.15 1017.93 1018.62 1019.30 1019.54 1019.72 1020.38 1020.75 1021.31 1021.95 1022.65 1023.23 1023.70 1023.94 1024.40 1024.68 1024.74 1024.77 1024.69 1024.60 1024.75 1025.58 1026.15
1009.35 1008.61 1008.06 1008.02 1008.12 1008.26 1008.61 1008.78 1009.22 1009.74 1010.46 1010.91 1011.51 1012.15 1012.85 1013.94 1014.41 1015.21 1015.97 1017.03 1017.86 1018.72 1019.36 1019.86 1019.91 1020.43 1021.11 1021.69 1022.24 1023.01 1023.71 1024.16 1024.33 1024.47 1024.68 1024.95 1024.99 1024.94 1025.07 1025.07 1025.64 1025.89 1026.70
1009.33 1008.70 1008.13 1007.91 1008.10 1008.32 1008.84 1009.29 1009.79 1010.37 1010.92 1011.41 1012.15 1012.77 1013.71 1014.58 1015.11 1015.74 1016.41 1017.32 1018.35 1019.32 1020.24 1020.47 1020.65 1021.05 1021.71 1022.57 1023.05 1023.72 1024.28 1025.01 1025.28 1025.62 1026.06 1026.10 1026.26 1026.22 1026.25 1026.53 1026.78 1027.02 1027.36
1009.53 1008.96 1008.02 1007.79 1008.24 1008.87 1009.40 1010.08 1010.52 1011.21 1011.75 1012.40 1013.13 1013.99 1014.61 1015.34 1016.23 1016.29 1016.89 1017.82 1018.96 1020.07 1020.77 1021.05 1021.39 1021.66 1022.36 1023.03 1023.74 1024.09 1024.48 1025.21 1025.79 1026.23 1026.69 1027.07 1027.23 1027.25 1027.34 1027.41 1027.49 1027.70 1028.21
1009.59 1008.40 1007.83 1007.75 1008.55 1009.17 1010.02 1010.78 1011.30 1011.85 1012.55 1013.38 1014.00 1014.96 1015.73 1016.19 1016.59 1017.22 1017.65 1018.55 1019.69 1020.27 1021.17 1021.83 1022.38 1022.87 1023.30 1023.65 1024.03 1024.23 1024.76 1025.65 1026.46 1026.98 1027.42 1027.77 1027.89 1027.96 1028.05 1027.94 1027.99 1028.09 1028.20
1009.50 1008.90 1007.86 1008.07 1008.57 1009.50 1010.34 1011.20 1011.79 1012.47 1013.13 1014.01 1014.79 1015.59 1016.19 1016.58 1017.17 1017.79 1018.48 1019.53 1020.41 1020.96 1021.81 1022.53 1023.13 1023.60 1023.90 1024.20 1024.48 1024.93 1025.66 1026.46 1026.98 1027.52 1028.01 1028.35 1028.50 1028.46 1028.31 1028.23 1028.21 1028.47 1028.53
1009.22 1008.56 1008.04 1008.48 1009.11 1009.95 1010.81 1011.37 1012.05 1012.78 1013.49 1014.31 1015.15 1015.83 1016.50 1017.26 1017.97 1018.65 1019.44 1020.42 1021.17 1021.67 1022.60 1023.61 1024.17 1024.47 1024.85 1025.36 1025.84 1026.17 1026.57 1026.82 1027.21 1027.87 1028.33 1028.65 1028.78 1028.90 1028.91 1028.90 1029.00 1029.06 1029.17
1008.66 1008.00 1007.99 1008.59 1009.41 1010.34 1011.13 1011.66 1012.32 1013.00 1013.17 1014.14 1015.19 1015.75 1016.44 1017.63 1018.58 1019.18 1019.89 1021.01 1021.81 1022.41 1023.24 1023.99 1024.70 1025.47 1025.95 1026.34 1026.70 1027.05 1027.39 1027.61 1027.89 1028.31 1028.73 1029.09 1029.27 1029.33 1029.42 1029.38 1029.48 1029.59 1029.76
1007.23 1007.64 1008.15 1008.86 1009.93 1010.57 1011.37 1012.33 1013.07 1013.50 1014.30 1014.84 1015.49 1016.10 1017.27 1017.95 1018.71 1019.79 1020.62 1021.54 1022.22 1022.90 1023.72 1024.56 1025.57 1026.24 1026.72 1027.21 1027.59 1027.90 1028.13 1028.37 1028.60 1028.88 1029.24 1029.50 1029.70 1029.78 1029.90 1029.97 1030.01 1030.15 1030.26
1006.77 1007.49 1008.33 1009.30 1010.11 1010.80 1011.69 1012.52 1013.63 1014.95 1015.33 1015.69 1016.21 1017.04 1017.72 1018.35 1019.50 1020.45 1021.33 1022.04 1022.45 1023.22 1024.02 1025.17 1026.06 1026.77 1027.30 1027.67 1028.02 1028.43 1028.89 1028.95 1029.07 1029.42 1029.72 1029.91 1030.02 1030.18 1030.43 1030.58 1030.64 1030.64 1030.66
1006.64 1007.64 1008.57 1009.55 1010.31 1011.25 1011.94 1013.04 1013.84 1014.94 1016.16 1017.21 1017.80 1018.15 1018.87 1019.49 1020.46 1021.26 1021.82 1022.13 1023.16 1024.10 1024.76 1025.73 1026.51 1027.05 1027.49 1027.96 1028.41 1028.84 1029.14 1029.40 1029.67 1029.89 1030.11 1030.31 1030.46 1030.61 1030.83 1031.01 1031.00 1031.03 1031.00
1007.07 1008.05 1008.92 1009.93 1010.69 1011.66 1012.64 1013.60 1014.47 1015.52 1016.64 1017.76 1018.81 1019.59 1020.16 1020.78 1021.49 1021.99 1022.39 1022.89 1023.74 1024.64 1025.44 1026.22 1026.68 1027.20 1027.72 1028.19 1028.69 1029.10 1029.43 1029.79 1030.01 1030.24 1030.46 1030.65 1030.80 1030.89 1031.12 1031.16 1031.11 1030.94 1031.01
1007.64 1008.32 1009.23 1010.37 1011.30 1012.23 1013.01 1013.96 1015.05 1016.07 1017.17 1018.23 1019.34 1020.03 1020.81 1021.55 1022.14 1022.73 1023.09 1023.65 1024.33 1025.02 1025.81 1026.46 1027.01 1027.50 1028.01 1028.44 1028.98 1029.41 1029.77 1030.08 1030.32 1030.52 1030.75 1030.94 1031.07 1031.10 1031.28 1031.37 1031.38 1031.50 1031.46
1008.25 1009.02 1009.69 1010.73 1011.63 1012.53 1013.38 1014.38 1015.42 1016.49 1017.56 1018.81 1019.89 1020.63 1021.15 1021.63 1022.43 1023.11 1023.58 1024.20 1024.69 1025.35 1026.04 1026.64 1027.17 1027.73 1028.22 1028.68 1029.23 1029.71 1030.07 1030.38 1030.63 1030.85 1031.05 1031.23 1031.33 1031.42 1031.49 1031.54 1031.60 1031.66 1031.61
1008.69 1009.41 1010.26 1010.94 1011.91 1012.98 1013.92 1014.88 1015.97 1016.86 1017.87 1018.94 1020.11 1021.00 1021.44 1021.94 1022.64 1023.38 1023.87 1024.43 1025.02 1025.58 1026.19 1026.67 1027.28 1027.85 1028.34 1028.71 1029.18 1029.87 1030.28 1030.59 1030.88 1031.10 1031.33 1031.45 1031.55 1031.67 1031.76 1031.84 1031.92 1032.04 1032.01
1009.29 1009.84 1010.64 1011.52 1012.36 1013.32 1014.31 1015.30 1016.17 1017.11 1018.05 1019.09 1020.08 1020.75 1021.46 1022.26 1023.01 1023.68 1024.08 1024.66 1025.20 1025.81 1026.43 1026.92 1027.40 1028.05 1028.44 1028.74 1029.09 1029.68 1030.29 1030.73 1030.93 1031.13 1031.50 1031.70 1031.74 1031.83 1032.04 1032.20 1032.26 1032.33 1032.31
1009.94 1010.17 1011.03 1011.85 1012.69 1013.67 1014.56 1015.51 1016.47 1017.29 1018.16 1019.15 1020.05 1020.72 1021.48 1022.28 1023.14 1023.83 1024.34 1024.87 1025.43 1026.07 1026.67 1027.21 1027.65 1028.12 1028.61 1028.93 1029.23 1029.71 1030.19 1030.56 1030.80 1031.08 1031.39 1031.71 1032.00 1032.17 1032.32 1032.45 1032.51 1032.53 1032.55
1010.67 1010.92 1011.51 1012.30 1013.18 1014.05 1014.94 1015.82 1016.72 1017.64 1018.46 1019.26 1020.05 1020.79 1021.65 1022.43 1023.30 1024.02 1024.59 1025.14 1025.64 1026.23 1026.91 1027.46 1027.87 1028.29 1028.77 1029.11 1029.48 1029.92 1030.29 1030.64 1030.95 1031.17 1031.53 1031.84 1032.10 1032.35 1032.56 1032.65 1032.75 1032.82 1032.80
1011.38 1011.69 1012.08 1012.66 1013.55 1014.30 1015.13 1016.02 1016.95 1017.84 1018.65 1019.42 1020.08 1020.91 1021.70 1022.47 1023.32 1024.05 1024.71 1025.30 1025.86 1026.49 1027.05 1027.59 1028.02 1028.42 1028.90 1029.36 1029.74 1030.13 1030.55 1030.90 1031.15 1031.37 1031.73 1032.08 1032.44 1032.70 1032.78 1032.90 1032.98 1033.07 1033.08
Wind_Speed
8 10 7 6 4 2 4 7 9 8 11 15 11 4 7 9 8 8 8 8 10 7 5 5 7 6 5 4 3 4 5 4 6 2 2 5 6 7 8 9 10 9 10
7 10 6 5 2 3 3 5 7 11 15 17 12 6 6 7 8 10 8 10 9 7 6 7 7 5 5 4 5 6 4 4 4 6 3 3 5 4 5 6 5 6 6
6 8 6 7 3 4 5 6 6 8 9 8 7 12 6 7 10 8 10 9 9 7 6 8 6 6 5 5 7 6 5 5 5 5 3 2 2 1 4 3 4 4 3
5 8 7 1 2 5 5 6 6 6 6 6 7 11 9 9 10 11 10 10 10 8 8 8 7 7 6 8 7 7 7 8 8 7 5 2 1 0 1 3 4 6 6
7 6 10 2 4 5 5 5 7 7 6 6 9 9 10 10 8 13 12 12 11 11 10 9 8 11 15 12 7 7 8 7 6 5 4 4 4 4 4 3 4 4 6
12 6 8 1 4 5 5 6 7 8 8 9 10 11 11 8 19 20 15 12 12 13 12 12 11 17 20 24 23 20 11 6 7 8 6 6 6 4 4 4 4 2 4
12 7 4 1 3 5 5 7 7 8 9 8 9 12 12 14 23 25 22 12 12 12 13 12 11 11 17 16 25 26 25 26 21 10 10 5 5 4 4 5 5 4 3
12 7 3 3 4 5 7 8 7 6 8 8 10 12 13 13 24 26 24 14 13 12 12 11 11 12 15 15 16 17 15 14 13 10 9 6 6 6 5 3 2 6 4
12 7 4 5 6 7 8 9 8 10 8 8 10 13 14 13 25 26 20 14 13 11 8 9 12 13 21 22 15 15 13 12 18 22 22 22 22 23 18 8 7 5 3
10 11 6 5 6 8 8 9 7 9 8 8 11 12 18 14 23 27 20 11 14 11 11 12 19 15 22 20 11 10 10 6 7 8 8 13 14 17 21 11 7 8 4
12 11 8 8 9 9 10 9 11 10 11 12 12 11 13 14 14 22 22 13 11 11 8 8 8 21 21 22 17 9 10 7 13 7 6 5 5 7 7 7 7 7 5
14 11 7 10 10 10 12 10 12 13 13 13 13 10 10 10 18 19 23 22 19 12 11 8 13 23 23 21 12 20 20 13 7 6 6 5 5 5 4 4 5 5 4
11 12 5 11 11 12 13 11 10 12 11 11 12 10 9 9 11 24 26 27 25 14 10 18 24 23 22 17 20 19 14 6 5 6 5 4 4 4 5 4 5 5 5
11 10 8 11 11 11 9 9 10 10 11 11 11 11 10 11 11 11 12 15 24 17 22 14 15 16 17 15 11 10 6 5 5 4 4 3 4 4 4 4 4 4 4
10 7 11 11 10 10 8 8 9 9 12 13 11 11 12 11 10 17 16 12 10 14 14 8 5 7 6 5 5 6 6 6 5 5 5 5 4 4 3 4 4 3 4
8 8 10 10 9 10 11 11 16 17 16 17 18 13 10 21 25 26 23 24 25 22 8 9 6 5 6 5 6 6 5 7 5 5 5 4 4 4 5 5 4 4 4
12 12 10 12 10 11 12 13 13 15 19 19 23 23 23 24 26 26 26 23 20 15 8 6 6 6 5 5 6 5 4 4 5 5 5 5 4 5 6 4 4 4 4
14 20 11 11 11 11 12 12 13 13 13 12 19 21 26 27 26 23 20 13 9 8 6 7 6 6 7 7 5 4 4 5 4 5 5 4 4 4 4 3 3 3 3
13 10 11 10 11 13 12 12 12 13 13 12 12 16 20 24 21 17 11 7 8 8 6 6 6 7 6 6 5 5 5 4 4 4 4 4 4 4 4 4 5 9 7
11 21 15 11 12 11 11 12 12 12 13 12 10 11 12 13 6 3 5 7 7 7 6 7 6 7 6 6 6 5 5 5 4 4 4 4 4 4 4 4 4 3 4
10 12 19 12 11 11 11 12 12 12 12 11 10 11 16 8 6 5 7 6 7 7 7 7 7 7 5 5 5 5 5 4 5 4 4 4 4 4 4 4 4 5 4
9 11 11 11 11 11 12 12 12 12 13 12 11 12 15 4 6 6 7 7 6 6 6 7 6 6 5 5 6 5 5 5 5 4 4 4 4 4 4 4 4 4 4
9 11 11 10 11 16 12 11 12 12 12 12 11 9 8 7 7 6 8 7 7 7 6 6 7 6 4 5 5 5 5 5 5 5 4 4 4 4 4 4 4 4 4
8 12 12 11 11 11 11 11 11 13 13 12 10 7 8 8 8 8 8 8 8 7 6 6 6 7 6 5 5 5 5 5 4 5 6 4 4 5 4 4 4 5 4
6 9 12 12 11 11 12 12 11 11 11 11 8 9 8 9 9 8 8 7 8 8 7 6 5 8 8 9 8 8 10 10 6 7 5 6 6 7 5 4 4 4 4
6 8 10 10 10 10 11 11 11 11 11 9 8 8 9 10 9 9 8 8 8 7 8 5 7 10 10 8 9 12 13 11 7 10 5 5 5 4 4 5 6 4 5
Wind_Direction
326 317 330 320 298 4 133 125 146 130 130 140 210 258 116 103 112 101 103 109 102 105 103 112 103 94 83 90 87 72 70 79 107 88 68 30 31 40 41 45 44 42 57
320 314 303 21 278 157 107 117 178 156 152 162 165 134 100 109 104 106 109 105 109 102 104 105 100 96 95 89 81 76 76 74 106 117 75 63 55 24 45 55 46 52 53
326 318 326 324 229 92 82 87 109 135 130 139 138 122 116 108 109 106 108 109 103 99 87 84 94 104 87 84 83 80 67 65 80 114 105 74 73 86 65 50 56 51 65
333 347 324 226 293 81 75 78 86 87 109 106 122 122 122 114 109 118 104 94 86 79 77 76 69 87 99 94 88 83 83 82 86 92 86 96 102 156 92 100 62 52 41
341 357 330 339 1 96 81 79 90 79 88 107 104 116 114 105 111 105 99 94 94 86 77 76 79 92 98 94 93 86 87 89 89 96 91 75 61 37 44 1 86 83 45
326 343 323 15 102 74 91 99 101 97 84 82 109 120 108 106 107 103 101 100 95 92 84 73 76 88 90 92 91 87 87 84 77 85 76 70 31 27 41 53 65 58 28
323 323 300 43 107 133 128 117 105 108 106 97 106 106 103 108 111 108 104 100 100 96 95 94 92 88 88 86 81 75 71 71 72 80 76 50 50 31 63 54 66 87 86
317 307 248 200 139 123 126 122 114 109 113 115 105 108 109 117 115 110 108 101 95 97 98 107 110 98 88 91 84 77 74 71 69 72 73 67 63 37 41 51 118 109 86
314 300 224 181 155 144 129 116 105 105 101 113 113 114 113 118 120 115 106 106 106 108 104 94 94 98 100 97 93 93 87 83 85 85 80 70 62 55 48 44 26 62 64
312 307 243 177 140 118 110 105 91 93 97 97 104 108 118 119 124 119 116 113 102 96 90 93 97 106 104 105 101 106 101 92 87 75 65 62 58 55 56 52 46 55 43
305 302 264 169 127 118 107 108 106 103 98 94 94 100 108 119 127 124 119 111 110 107 100 87 93 103 104 101 95 97 107 106 90 78 72 64 59 65 60 56 61 71 67
309 295 243 139 128 122 119 114 115 110 105 104 101 96 107 119 124 122 114 112 114 110 104 95 98 104 106 105 102 101 100 90 81 76 71 59 57 54 55 71 84 83 94
290 270 183 129 129 125 122 124 117 116 115 113 113 110 111 117 114 114 109 111 110 102 106 113 111 108 103 96 97 94 88 83 86 81 77 67 68 60 40 27 43 93 58
265 271 154 126 127 123 122 126 124 126 122 124 124 120 115 108 108 110 106 110 112 109 112 105 111 105 91 89 83 75 82 87 95 91 84 83 70 52 37 30 48 44 49
230 197 139 126 125 119 118 126 127 128 135 136 133 131 130 123 118 120 121 120 123 115 110 103 83 96 94 80 71 72 66 61 66 68 70 64 58 59 42 35 46 43 57
187 144 128 122 127 118 111 94 72 115 110 113 122 126 118 120 122 124 126 123 126 127 113 112 109 107 104 100 90 80 64 75 72 75 72 75 63 62 54 36 43 44 49
144 131 126 127 127 122 119 113 105 78 95 109 110 117 122 125 119 121 125 133 130 121 111 102 109 111 111 100 96 89 88 77 81 77 76 66 61 64 68 50 34 35 21
131 134 130 129 125 123 122 121 119 116 111 101 99 113 114 118 123 130 141 123 108 95 99 110 113 109 107 108 103 99 87 77 76 78 73 71 67 73 66 60 48 55 30
130 126 125 123 122 122 122 121 118 116 114 111 112 107 113 120 126 135 112 105 119 113 109 105 108 110 107 105 101 98 101 98 97 88 78 78 76 78 63 52 43 44 42
124 127 124 121 125 125 125 123 120 119 121 120 122 124 131 133 131 118 105 110 114 112 110 114 110 109 111 109 109 110 97 92 91 88 86 85 79 81 72 62 48 44 29
125 128 131 127 129 127 126 124 125 127 125 126 131 140 148 137 136 123 122 116 121 118 118 118 118 116 116 119 115 108 104 103 98 95 88 80 77 68 61 60 58 47 41
127 129 132 132 126 130 127 130 130 129 131 131 133 151 148 110 112 121 119 119 117 112 115 124 121 123 130 129 122 118 116 110 103 95 90 85 77 73 63 58 58 63 46
129 127 124 128 128 128 128 130 131 132 133 134 145 150 137 127 120 126 125 121 120 119 116 119 123 121 123 120 117 123 123 125 127 116 102 87 78 79 75 67 59 55 39
131 130 126 124 129 131 131 131 130 131 133 139 143 137 132 129 128 129 124 124 124 119 117 120 125 128 122 116 109 111 114 114 109 113 113 100 81 79 75 70 59 57 61
120 130 132 130 132 131 129 129 131 131 136 139 138 130 129 128 126 129 125 126 127 125 126 127 125 129 129 125 118 120 125 113 110 108 100 97 91 90 81 72 67 52 56
110 127 132 128 128 132 132 133 134 135 142 143 135 131 135 134 133 135 134 135 131 127 130 130 135 132 133 126 124 124 120 117 108 114 106 98 91 85 80 77 73 74 64